This demonstration page uses our WeatherBlox Daily Observations layout. Learn more.

Left ArrowRight Arrow

41.86663, -103.66717

Hourly Observations for November 1, 2019

Temp ( °F °C ) Dew Point ( °F °C ) Humidity (%) Winds ( mph kmh ) Pressure ( in mb ) Visibility ( mi km ) Precip ( " mm )
12:53 am 00:53 Cloudy 35 1.7 24 -4.4 64 64 NW 5 7 30.15 1021 10 16 0.00 0.00
1:53 am 01:53 Cloudy 36 2.2 28 -2.2 73 73 NNW 14 22 30.16 1021 10 16 0.00 0.00
2:53 am 02:53 Cloudy 35 1.7 29 -1.7 78 78 NNW 9 15 30.17 1022 10 16 0.00 0.00
3:53 am 03:53 Cloudy 35 1.7 28 -2.2 76 76 NNW 14 22 30.19 1022 10 16 0.00 0.00
4:53 am 04:53 Cloudy with Light Snow 34 1.1 29 -1.7 82 82 WNW 9 15 30.24 1024 9 14 0.00 0.00
5:21 am 05:21 Cloudy with Light Snow 33 0.6 30 -1.1 89 89 WNW 8 13 30.32 1027 4 6 0.00 0.00
5:53 am 05:53 Cloudy with Light Snow 33 0.6 31 -0.6 92 92 WNW 10 17 30.28 1026 4 6 0.00 0.00
6:12 am 06:12 Cloudy 34 1 30 -1 87 87 W 10 17 30.34 1027 7 11 0.00 0.00
6:53 am 06:53 Cloudy with Light Snow 33 0.6 31 -0.6 92 92 W 13 20 30.30 1026 8 13 0.00 0.00
7:53 am 07:53 Cloudy 33 0.6 29 -1.7 85 85 WNW 12 19 30.35 1028 10 16 0.00 0.00
8:09 am 08:09 Mostly Cloudy 34 1 28 -2 81 81 WNW 13 20 30.39 1029 10 16 0.00 0.00
8:24 am 08:24 Cloudy 34 1 28 -2 81 81 WNW 13 20 30.40 1029 10 16 0.00 0.00
8:53 am 08:53 Cloudy 35 1.7 29 -1.7 78 78 WNW 15 24 30.37 1028 10 16 0.00 0.00
9:53 am 09:53 Mostly Sunny 37 2.8 27 -2.8 67 67 NW 15 24 30.39 1029 10 16 0.00 0.00
10:53 am 10:53 Mostly Sunny 40 4.4 25 -3.9 55 55 WNW 20 31 30.39 1029 10 16 0.00 0.00
11:53 am 11:53 Mostly Sunny 41 5 23 -5 49 49 NNW 24 39 30.40 1029 10 16 0.00 0.00
12:53 pm 12:53 Mostly Sunny 40 4.4 21 -6.1 47 47 NW 26 43 30.38 1029 10 16 0.00 0.00
1:53 pm 13:53 Mostly Cloudy 41 5 22 -5.6 47 47 NW 25 41 30.38 1029 10 16 0.00 0.00
2:53 pm 14:53 Cloudy 42 5.6 22 -5.6 45 45 NW 22 35 30.38 1029 10 16 0.00 0.00
3:53 pm 15:53 Mostly Sunny 39 3.9 20 -6.7 46 46 NW 22 35 30.40 1030 10 16 0.00 0.00
4:53 pm 16:53 Mostly Sunny 37 2.8 20 -6.7 50 50 WNW 17 28 30.41 1030 10 16 0.00 0.00
5:53 pm 17:53 Clear 34 1.1 20 -6.7 56 56 NW 12 19 30.44 1031 10 16 0.00 0.00
6:53 pm 18:53 Clear 27 -2.8 20 -6.7 75 75 NW 5 7 30.48 1032 10 16 0.00 0.00
7:53 pm 19:53 Clear 27 -2.8 20 -6.7 75 75 WNW 5 7 30.48 1032 10 16 0.00 0.00
8:53 pm 20:53 Clear 24 -4.4 19 -7.2 81 81 WNW 6 9 30.48 1032 10 16 0.00 0.00
9:53 pm 21:53 Clear 24 -4.4 20 -6.7 84 84 NW 5 7 30.48 1032 10 16 0.00 0.00
10:53 pm 22:53 Clear 21 -6.1 18 -7.8 88 88 NNW 6 9 30.48 1032 10 16 0.00 0.00
11:53 pm 23:53 Clear 21 -6.1 18 -7.8 88 88 NNW 7 11 30.47 1032 10 16 0.00 0.00

Powered by AerisWeather